Theta_e
309 310 310 310 310 310 308 311 314 312 312 313 314 316 317 317 317 317 318 319 318 316 314 318 322 318 317 316 319 320 329 333 335 331 328 331 334 326 330 330 328 329 333 335 335
310 310 310 309 309 310 308 309 313 312 312 311 314 315 317 316 317 318 319 319 317 316 312 319 321 315 314 316 318 321 327 331 330 332 327 331 333 328 330 329 331 337 335 335 331
308 310 309 309 308 312 309 309 310 313 313 312 313 312 315 316 318 318 314 314 316 316 315 320 321 318 315 315 317 319 323 327 326 330 325 330 330 328 329 330 329 339 335 332 328
308 308 308 308 307 309 309 309 309 312 313 311 312 311 313 316 318 313 310 315 313 316 319 320 320 317 316 315 315 319 318 320 331 327 326 324 327 327 327 325 327 336 334 332 328
309 307 307 307 307 307 308 309 309 310 313 312 311 313 316 316 312 311 311 321 319 318 320 321 321 317 317 314 314 316 317 318 327 328 327 322 322 323 321 321 333 334 334 332 329
312 308 306 306 306 306 306 307 309 310 311 313 313 314 316 316 313 312 316 320 320 319 319 320 320 316 316 315 314 314 316 318 322 325 326 325 322 322 321 330 336 335 333 331 330
309 310 307 306 306 306 306 307 308 311 310 311 312 314 314 314 313 312 318 319 319 320 319 317 317 316 316 315 314 314 316 317 318 323 325 325 325 321 320 328 333 334 333 331 330
309 307 306 306 306 306 306 307 308 311 311 311 312 314 314 312 311 310 313 317 319 319 319 316 315 316 318 314 314 315 316 317 317 320 321 328 335 321 319 326 328 331 331 331 329
306 304 305 305 306 306 306 306 308 309 311 311 313 313 311 311 311 310 310 313 318 318 318 316 314 316 314 314 314 315 316 317 319 319 318 321 323 324 317 322 324 326 327 329 329
304 304 304 304 305 306 306 309 309 309 312 313 313 312 312 311 310 310 311 315 315 316 317 315 314 314 312 311 315 316 316 314 318 319 318 319 320 315 316 319 321 324 325 327 328
305 305 304 303 305 306 307 312 310 311 312 312 312 312 311 311 310 311 311 311 313 315 317 314 314 314 312 312 311 312 313 312 312 318 319 319 319 315 313 313 320 324 323 325 327
306 305 305 303 305 306 311 312 310 310 312 311 311 312 311 311 313 311 310 311 313 315 315 315 315 314 315 314 312 311 314 313 314 316 318 318 319 319 312 313 315 323 324 323 324
306 305 304 304 306 311 310 311 310 311 310 312 311 312 312 311 312 311 311 311 313 315 315 318 317 314 315 313 313 313 314 313 313 314 314 314 315 318 314 313 312 314 323 324 324
306 305 305 308 311 310 312 310 310 310 312 311 311 312 312 312 312 311 311 311 312 314 315 315 315 314 314 314 312 313 312 312 314 312 312 311 312 311 315 313 312 310 313 322 322
306 305 305 307 310 311 311 308 307 310 304 309 311 310 311 311 312 312 310 311 313 314 312 314 314 314 315 314 312 312 311 312 314 314 311 312 309 309 311 315 314 310 310 310 317
306 305 309 310 311 310 307 306 310 309 302 309 310 312 311 311 312 311 311 310 311 313 313 313 311 312 313 312 312 311 311 311 313 314 312 312 309 310 310 314 312 310 308 308 309
306 306 306 309 311 308 307 310 310 308 309 311 311 311 311 311 312 312 313 312 313 311 311 313 313 312 311 314 311 312 311 312 313 311 314 311 309 311 313 312 311 309 307 307 310
305 307 308 307 308 306 310 311 311 311 312 311 311 311 311 311 311 312 311 312 311 312 310 311 309 313 312 313 314 312 312 314 317 317 313 309 311 312 312 311 310 308 307 307 310
305 311 310 310 308 309 309 309 309 313 312 311 311 311 309 311 309 310 310 311 310 310 310 309 313 311 311 310 310 313 312 309 309 311 309 308 308 310 311 311 310 310 309 308 310
308 311 312 307 308 311 309 310 312 310 310 310 312 309 309 308 310 309 310 308 309 307 306 309 308 311 311 310 310 309 307 309 307 313 313 310 310 310 310 312 311 311 310 310 309
312 310 312 306 306 306 307 309 310 309 308 309 311 310 309 307 307 308 308 308 307 307 306 307 308 310 311 311 310 307 307 308 307 307 310 307 310 307 310 310 311 310 310 309 308
313 313 311 306 310 304 306 307 306 307 307 307 308 309 309 307 307 308 310 310 307 307 307 306 306 307 310 307 307 309 308 306 308 310 305 304 306 308 309 309 310 309 309 306 304
311 309 308 307 306 307 307 307 306 305 305 305 307 306 306 306 306 308 308 309 308 308 308 306 304 304 308 307 306 307 308 308 305 305 306 307 306 305 307 309 308 307 305 303 301
306 309 311 307 304 309 309 310 309 304 304 304 304 304 304 305 305 306 305 309 307 306 306 304 303 305 308 306 306 307 308 308 306 305 305 305 305 303 306 308 307 304 302 301 301
306 309 308 305 311 310 309 310 310 310 304 303 305 303 304 303 305 304 304 307 307 307 305 303 305 303 302 302 303 304 307 307 304 305 306 307 306 305 302 305 305 303 302 302 301
305 307 305 306 308 310 310 309 310 310 307 308 306 308 304 303 307 308 307 305 305 305 305 302 303 304 302 302 301 302 302 303 306 307 306 306 307 303 302 303 304 304 304 303 301
308 308 303 303 307 308 307 309 310 309 308 308 306 308 308 307 305 305 304 303 303 303 304 303 303 303 304 307 309 309 307 303 301 304 307 307 306 300 304 306 306 304 304 302 301
Wind_Speed
9 11 13 15 16 19 21 21 19 13 12 9 8 7 4 2 3 4 4 3 1 6 9 7 10 7 7 3 3 3 1 5 8 6 5 4 4 3 2 7 5 3 7 16 32
8 10 12 13 15 17 20 21 20 14 11 9 8 6 4 1 4 10 5 4 6 9 5 7 5 4 2 4 3 3 4 6 6 8 2 3 5 7 5 5 5 10 15 32 33
9 9 11 12 13 15 17 19 19 16 13 10 7 6 3 2 3 1 3 5 7 8 5 8 11 3 4 2 4 4 4 6 5 3 7 3 4 4 11 2 7 14 17 20 23
8 9 10 11 12 12 16 17 19 16 14 11 8 7 3 3 4 2 10 9 7 3 3 6 4 3 1 5 5 2 5 6 3 3 5 6 1 5 3 4 10 20 22 19 15
8 8 8 9 10 12 14 16 17 15 11 10 8 6 4 2 4 9 12 7 3 5 4 2 3 2 2 2 4 6 8 5 6 6 3 8 3 5 3 2 18 18 17 16 14
7 7 8 8 9 10 13 14 14 13 9 10 7 8 3 2 7 10 8 4 2 6 4 2 3 4 5 4 3 4 11 4 4 5 2 3 4 2 2 11 16 17 14 14 14
7 7 6 8 9 10 11 12 13 12 8 9 6 7 3 3 5 6 7 7 4 0 2 5 3 5 7 6 3 4 8 4 5 6 5 3 6 3 7 9 15 13 12 12 14
7 5 5 7 8 8 9 9 8 7 7 6 6 4 4 6 5 9 3 5 4 1 3 7 6 2 2 5 6 6 3 4 5 8 4 8 8 7 8 11 11 11 10 11 10
4 4 5 6 7 7 8 8 6 5 5 6 5 3 3 8 5 8 8 4 3 2 3 6 2 1 6 3 4 4 3 3 2 8 6 5 5 6 8 9 11 11 9 9 8
5 6 6 7 7 7 8 10 6 7 6 7 8 3 3 2 4 6 6 4 2 2 3 1 3 2 5 4 4 2 2 3 4 6 2 5 3 3 4 7 11 10 9 8 8
8 9 7 6 7 7 9 3 5 3 1 1 5 2 2 3 3 1 1 2 3 4 3 2 5 2 8 6 6 3 4 6 4 6 5 8 5 8 8 5 10 13 10 10 9
10 10 5 3 5 4 6 3 3 2 5 3 4 3 3 2 3 0 2 1 1 2 2 3 3 8 5 9 5 6 4 4 2 2 5 6 9 7 9 9 7 18 13 12 9
10 8 5 2 3 4 4 4 3 5 1 3 1 2 1 1 4 1 1 4 2 3 3 2 5 6 6 4 4 2 2 1 5 1 3 4 4 5 6 4 7 6 13 15 16
8 7 5 3 2 4 2 5 3 3 4 2 2 1 1 1 2 2 1 0 3 3 4 2 3 2 1 2 3 3 1 3 5 4 5 5 4 6 7 10 7 9 8 11 13
7 6 4 7 3 2 4 5 3 2 5 6 2 2 2 1 2 1 1 3 3 4 5 4 4 3 2 2 2 5 3 3 3 3 3 1 4 7 6 10 11 11 10 10 11
5 6 4 3 3 4 6 4 1 5 3 5 1 3 1 3 2 1 1 2 3 4 3 3 1 1 2 2 2 4 3 5 5 3 2 4 6 5 5 12 7 5 7 9 10
3 5 5 3 3 6 4 2 4 6 1 6 3 5 5 4 3 4 2 1 1 4 3 2 1 1 1 2 3 5 6 3 4 3 4 3 3 9 4 6 5 9 7 7 8
1 3 5 4 4 3 2 3 8 2 3 2 3 6 4 2 2 4 3 3 3 2 2 2 6 3 1 1 2 2 5 4 5 3 4 3 5 6 1 5 8 10 8 8 8
2 2 2 5 2 2 4 5 3 2 3 5 7 2 4 2 1 2 6 2 1 4 3 4 3 1 2 2 2 2 2 3 2 2 2 4 5 3 1 4 6 8 8 8 8
4 3 2 4 1 2 4 1 1 2 4 2 2 2 3 5 1 1 2 3 2 2 3 2 4 0 1 1 2 2 3 2 2 1 3 5 4 5 5 6 5 6 7 7 6
1 2 1 1 0 4 3 3 2 2 1 2 4 4 3 2 4 3 5 3 6 4 2 1 2 3 2 4 6 1 3 2 2 5 3 2 5 5 7 8 10 8 8 8 8
1 2 0 2 3 1 2 2 1 1 1 2 2 3 3 4 3 3 3 2 2 1 4 2 4 4 8 2 1 2 4 5 4 4 2 3 5 2 1 9 8 8 7 7 7
0 2 1 1 2 2 3 2 2 2 2 1 2 1 2 3 3 2 3 1 2 2 1 2 3 2 7 4 3 1 4 2 2 3 4 5 5 1 2 6 7 10 7 7 8
2 2 3 2 1 2 1 2 2 2 2 2 3 2 2 3 5 3 3 2 1 1 1 2 2 5 6 5 4 3 5 5 4 3 3 6 5 4 5 7 7 8 9 9 8
1 3 4 2 3 1 2 2 2 3 3 4 2 4 2 3 4 4 2 2 2 2 1 1 4 3 6 8 5 6 7 7 8 8 8 2 5 3 9 10 10 9 8 9 8
1 1 3 2 2 3 3 4 6 2 5 4 4 2 6 5 4 4 1 3 2 2 2 2 4 3 5 6 8 7 10 10 9 7 11 10 18 8 6 8 10 14 13 12 9
1 1 4 4 2 4 4 5 5 4 4 5 7 2 4 8 5 5 5 4 5 0 3 3 2 3 5 5 5 7 9 10 5 6 8 9 8 6 4 9 13 12 13 13 12
Wind_Direction
346 354 355 357 359 4 7 9 2 357 353 343 339 341 354 335 245 238 245 232 286 308 314 305 315 253 254 260 228 301 148 198 196 213 235 255 109 38 147 91 59 28 149 151 155
324 334 341 348 355 357 3 5 7 5 357 349 345 337 350 340 254 247 293 225 274 304 306 327 328 287 221 214 258 167 174 206 196 234 181 260 117 133 109 110 54 71 92 131 141
305 317 326 339 346 350 357 2 7 6 3 355 343 341 330 303 237 71 351 310 293 278 275 293 293 329 195 212 236 207 199 244 16 323 19 235 119 107 128 146 168 150 137 140 139
293 302 315 328 336 342 347 353 4 3 4 5 351 344 330 288 61 339 351 334 313 243 280 313 325 336 164 218 241 241 222 246 184 273 31 327 342 101 113 172 156 154 146 147 147
291 297 305 317 330 337 336 345 357 360 7 16 15 7 333 345 44 17 339 333 297 172 226 270 299 290 255 255 265 217 265 288 139 165 281 321 28 123 109 148 134 136 144 152 153
300 299 304 309 323 335 339 345 350 360 11 12 30 1 327 39 9 341 356 333 151 190 245 196 242 302 259 255 191 228 224 204 179 158 169 1 327 88 254 128 128 141 152 160 163
301 308 310 311 318 332 340 349 356 7 1 356 13 5 321 272 329 338 28 17 160 134 4 344 341 40 325 314 335 241 219 138 168 180 167 145 306 259 169 142 136 147 159 166 173
314 308 314 317 320 332 335 348 354 5 353 21 4 13 284 329 336 6 7 28 79 50 324 329 358 313 223 287 325 161 118 149 210 145 172 153 252 202 187 145 151 151 172 169 183
329 318 315 316 316 327 331 332 329 321 318 315 342 7 344 335 7 6 349 327 185 281 324 325 342 333 343 21 8 15 180 166 164 179 139 199 222 186 186 162 165 164 162 169 180
3 338 317 312 319 326 333 318 309 303 317 291 277 353 318 331 337 333 1 5 317 101 331 307 39 30 350 68 189 245 339 318 188 199 153 190 261 94 231 198 172 158 156 169 184
11 352 332 309 325 342 354 353 10 358 330 259 304 349 358 311 304 327 306 345 353 38 29 274 65 228 243 233 230 303 246 229 236 214 140 196 208 198 218 237 178 166 163 184 189
4 357 354 333 343 1 7 52 79 272 323 246 251 264 249 299 292 315 321 314 333 319 312 27 253 242 239 263 233 241 252 286 262 199 163 179 230 219 197 219 218 164 173 184 166
9 13 28 48 23 38 25 56 352 2 249 279 244 323 143 2 331 276 108 334 280 310 317 185 267 323 214 330 28 325 227 301 233 138 17 137 284 226 241 264 212 227 192 162 185
14 28 52 62 55 10 68 349 17 3 63 298 279 231 269 259 306 5 338 254 312 283 280 238 289 312 321 321 49 309 19 273 136 108 184 154 241 240 213 222 229 221 169 178 183
18 35 71 42 355 31 323 327 360 89 49 294 317 273 179 142 222 270 312 339 281 322 63 277 356 338 17 310 356 240 329 273 159 192 79 332 90 270 201 212 215 218 205 191 184
33 47 24 32 357 341 324 339 344 47 309 339 297 283 259 223 206 217 268 161 252 302 233 242 257 319 229 301 254 284 348 26 48 76 59 245 134 274 203 220 208 186 186 176 151
42 37 48 7 341 335 342 46 35 79 280 316 321 331 317 227 195 185 232 244 221 32 337 345 269 258 269 324 340 45 52 5 10 12 215 290 77 243 295 315 233 158 136 118 118
20 13 28 28 336 350 9 60 64 300 359 345 282 294 249 204 240 208 302 289 218 160 311 147 336 202 282 233 194 195 141 154 183 178 240 329 231 252 83 -0 56 76 104 98 106
340 338 333 2 348 9 74 47 220 302 295 327 315 298 315 269 238 242 211 217 13 170 154 7 286 336 12 2 59 273 165 171 107 310 77 222 273 290 122 80 73 98 105 117 128
323 285 249 332 73 71 75 218 227 284 319 312 305 38 318 325 294 129 222 330 98 94 26 282 329 26 294 353 248 207 310 63 4 214 245 278 245 226 212 194 156 133 136 137 133
5 28 242 315 175 51 107 230 286 170 38 341 326 315 310 341 322 284 342 358 10 336 112 195 81 280 75 214 191 119 289 233 159 155 182 297 265 218 221 192 177 173 158 142 131
43 8 193 171 42 90 137 218 188 289 177 289 263 267 298 322 309 303 349 184 333 348 310 302 153 257 232 254 313 264 243 168 131 249 216 149 276 261 265 182 156 154 145 137 130
347 228 151 296 96 317 270 240 221 229 239 308 274 84 317 280 332 332 336 294 347 6 192 344 281 345 331 346 360 239 266 273 109 65 216 144 261 148 88 116 146 143 137 129 127
74 359 334 52 217 158 344 251 250 212 241 213 252 282 287 277 212 291 300 224 192 331 331 70 257 208 201 205 166 231 233 221 158 140 209 222 252 207 214 168 156 143 141 139 139
106 215 184 284 299 255 178 257 254 249 225 203 257 222 220 292 308 228 256 273 195 163 354 142 261 241 260 257 248 232 222 211 196 204 192 219 217 230 203 186 177 159 149 147 152
112 86 356 257 190 186 210 245 206 214 164 235 216 240 199 215 204 275 323 237 288 190 217 158 271 315 284 275 218 242 238 224 230 238 250 255 270 205 201 131 159 170 165 163 157
356 107 106 272 235 139 222 225 232 151 234 197 202 236 250 246 227 230 233 250 238 265 212 189 216 12 266 304 312 293 238 204 204 211 193 217 224 158 151 180 175 170 167 167 165